[[{"header":{"parameterUnit":"m.s-1","parameterCategory":1,"la1":30.2991,"la2":30.254,"lo1":-89.0895,"lo2":-89.0444,"dy":0.0017,"dx":0.0017,"nx":28,"ny":28,"refTime":"2025-11-28T09:00:00:Z","depth":0,"parameterNumber":2,"parameterNumberName":"U-component_of_WINDS"},"data":[0,0,0,0,0,0,0,0,0,0,0,0,0,0,0,0,0,0,0,0,0,0,0,0,0,0,0,0,0,0,0,0,0,0,0,0,0,0,0,0,0,0,0,0,0,0,0,0,0,0,0,0,0,0,0,0,0,0,-3.0114,-3.0114,0,-3.0112,-3.0111,-3.0111,-3.0041,-3.0039,-3.0037,-3.0035,-3.0033,-3.0035,-3.0036,0,0,0,0,0,0,0,0,0,0,0,0,0,-3.0058,-3.0059,-3.0114,-3.0114,-3.0114,-3.0112,-3.0111,-3.0111,-3.0041,-3.0039,-3.0036,-3.0034,-3.0032,-3.0034,-3.0036,0,0,0,0,0,0,0,0,0,0,0,0,0,-3.0071,-3.006,-3.0114,-3.0078,-3.0075,-3.0112,-3.0111,-3.0111,-3.0041,-3.0039,-3.0036,-3.0033,-3.0032,-3.0034,-3.0037,-3.0107,0,0,-3.0044,-3.0045,0,0,0,0,0,0,0,0,-3.0071,-3.0074,-3.0084,-3.0081,-3.0077,-3.0073,-3.0091,-3.011,-3.0042,-3.0054,-3.0035,-3.0032,-3.0049,-3.005,-3.0055,-3.0107,-3.0107,-3.0044,-3.0046,-3.0047,-3.0048,0,0,0,0,0,0,0,-3.007,-3.0073,-3.0113,-3.0084,-3.008,-3.0063,-3.0062,-3.0094,-3.0067,-3.0053,-3.0048,-3.0048,-3.0046,-3.0053,-3.0055,-3.0107,-3.0044,-3.0047,-3.0048,-3.0049,-3.0216,-3.0219,0,0,0,0,0,0,-3.0074,-3.0073,-3.0113,-3.0113,-3.0067,-3.0066,-3.0065,-3.0078,-3.0066,-3.0062,-3.0051,-3.0045,-3.005,-3.0052,-3.0054,-3.0137,-3.0047,-3.0049,-3.0051,-3.0213,-3.0217,-3.022,0,0,0,0,0,0,-3.0073,-3.0078,-3.0113,-3.0092,-3.0095,-3.007,-3.0085,-3.0079,-3.0085,-3.0065,-3.006,-3.0063,-3.0048,-3.0051,-3.0094,-3.0135,-3.005,-3.0053,-3.021,-3.0214,-3.0219,-3.0301,0,0,0,0,0,0,-3.0072,-3.0078,-3.0105,-3.0093,-3.0096,-3.0154,-3.0087,-3.0081,-3.009,-3.0082,-3.0074,-3.007,-3.0046,-3.0091,-3.0097,-3.0137,-3.0055,-3.0206,-3.0212,-3.0217,-3.0295,-3.0308,-3.0319,0,0,0,0,0,-3.007,-3.0128,-3.0106,-3.0112,-3.0129,-3.0156,-3.0158,-3.0129,-3.0093,-3.012,-3.0107,-3.0071,-3.013,-3.0096,-3.0102,-3.0144,-3.0203,-3.021,-3.0217,-3.0289,-3.0305,-3.0319,0,0,0,0,0,0,-3.0145,-3.0126,-3.0102,-3.0157,-3.0159,-3.0144,-3.0177,-3.0147,-3.0158,-3.0151,-3.0114,-3.0113,-3.0163,-3.0157,-3.012,-3.0211,-3.016,-3.0168,-3.0214,-3.0229,-3.0241,-3.0241,-3.0057,0,0,0,0,0,-3.0169,-3.0192,-3.0174,-3.0225,-3.0227,-3.0202,-3.0213,-3.019,-3.019,-3.0191,-3.018,-3.0182,-3.0201,-3.0214,-3.023,-3.0293,-3.0291,-3.0325,-3.0337,-3.0347,-3.0355,-3.0389,-3.0404,-3.0242,-3.0242,-3.0242,0,0,-3.0217,-3.0209,-3.0226,-3.024,-3.0239,-3.0264,-3.0203,-3.0233,-3.0252,-3.0195,-3.0236,-3.0229,-3.0228,-3.0282,-3.0305,-3.0279,-3.0399,-3.0356,-3.0364,-3.0366,-3.0397,-3.0413,-3.0426,-3.0247,-3.0246,-3.0245,0,0,-3.0318,-3.0314,-3.0357,-3.0357,-3.0355,-3.0338,-3.0348,-3.0338,-3.0331,-3.0371,-3.0329,-3.0351,-3.0384,-3.0386,-3.0391,-3.0493,-3.0461,-3.0499,-3.0564,-3.0597,-3.061,-3.0621,-3.0658,-3.0672,-3.0507,-3.0507,-3.0507,0,-3.0378,-3.0415,-3.0382,-3.0415,-3.0423,-3.0372,-3.0416,-3.0417,-3.0421,-3.0428,-3.0398,-3.0439,-3.0435,-3.0489,-3.0514,-3.0519,-3.053,-3.05,-3.061,-3.0621,-3.0631,-3.0667,-3.0681,-3.0512,-3.0511,-3.0511,-3.051,0,-3.049,-3.0517,-3.0551,-3.0557,-3.0568,-3.0606,-3.0578,-3.0594,-3.057,-3.0556,-3.0598,-3.0591,-3.0606,-3.0616,-3.0593,-3.0668,-3.0651,-3.0617,-3.0565,-3.0652,-3.0685,-3.0698,-3.0519,-3.0517,-3.0515,-3.0514,0,0,-3.064,-3.0626,-3.064,-3.0642,-3.0636,-3.0656,-3.0692,-3.0706,-3.072,-3.0724,-3.0754,-3.0783,-3.0751,-3.0757,-3.0733,-3.0762,-3.0845,-3.0724,-3.0723,-3.0748,-3.0927,-3.0954,-3.097,-3.0823,-3.0825,-3.0827,-3.0927,0,-3.0739,-3.0799,-3.077,-3.0834,-3.0858,-3.0811,-3.0842,-3.0842,-3.083,-3.0849,-3.0835,-3.0857,-3.0812,-3.0816,-3.0842,-3.0829,-3.0881,-3.0821,-3.0851,-3.0852,-3.0854,-3.0987,-3.1016,-3.1111,-3.094,-3.0942,-3.0943,0,-3.0862,-3.0872,-3.0939,-3.0929,-3.0938,-3.0967,-3.0977,-3.0996,-3.0995,-3.0984,-3.0991,-3.0961,-3.0995,-3.0943,-3.099,-3.0951,-3.0961,-3.0956,-3.0959,-3.0962,-3.0904,-3.0995,-3.114,-3.1155,-3.0963,-3.0961,-3.096,0,-3.0967,-3.0996,-3.104,-3.1043,-3.1033,-3.1054,-3.1051,-3.1047,-3.1057,-3.1067,-3.1073,-3.1086,-3.1094,-3.1105,-3.1079,-3.1043,-3.113,-3.1075,-3.1123,-3.1124,-3.1145,-3.1144,-3.1296,-3.1149,-3.1149,-3.1149,-3.1148,0,-3.1081,-3.1124,-3.1087,-3.1114,-3.116,-3.1127,-3.1174,-3.1165,-3.1162,-3.1187,-3.1146,-3.117,-3.1134,-3.1155,-3.1135,-3.1178,-3.1181,-3.1174,-3.1168,-3.1178,-3.1179,-3.1185,-3.1178,-3.1152,-3.1152,-3.1151,-3.115,0,-3.1206,-3.1182,-3.1227,-3.1214,-3.1211,-3.1246,-3.1235,-3.1259,-3.1244,-3.1276,-3.1282,-3.1258,-3.128,-3.1255,-3.1275,-3.1262,-3.132,-3.1304,-3.1321,-3.1317,-3.1366,-3.1362,-3.1528,-3.1548,-3.1388,-3.1389,-3.1391,0,-3.1281,-3.1313,-3.1303,-3.1316,-3.1316,-3.1338,-3.1348,-3.1316,-3.1329,-3.133,-3.1355,-3.1374,-3.1387,-3.1425,-3.141,-3.1425,-3.141,-3.1466,-3.1412,-3.1421,-3.1412,-3.1411,-3.1415,-3.1478,-3.148,-3.1482,-3.1483,0,-3.1417,-3.1404,-3.1421,-3.1434,-3.1447,-3.1456,-3.1461,-3.1475,-3.1441,-3.1458,-3.148,-3.149,-3.1511,-3.153,-3.1541,-3.1537,-3.1506,-3.15,-3.1512,-3.1524,-3.1533,-3.153,-3.1353,-3.1497,-3.1495,-3.1494,-3.1494,-3.1493,-3.152,-3.1547,-3.1544,-3.1564,-3.1565,-3.1571,-3.1593,-3.1581,-3.1599,-3.1613,-3.1593,-3.1621,-3.1619,-3.1631,-3.1631,-3.1652,-3.1628,-3.1645,-3.165,-3.1655,-3.1663,-3.1528,-3.1654,-3.1654,-3.1653,-3.1653,-3.1653,0,-3.1656,-3.1652,-3.167,-3.1679,-3.1695,-3.1663,-3.1667,-3.1683,-3.1708,-3.1709,-3.1723,-3.1749,-3.1767,-3.1753,-3.1769,-3.1789,-3.1774,-3.1794,-3.1793,-3.1793,-3.1683,-3.1672,-3.1805,-3.1805,-3.1805,-3.1805,-3.1805,-3.1805,-3.1728,-3.1771,-3.1758,-3.1801,-3.1796,-3.1824,-3.1829,-3.1835,-3.1835,-3.1866,-3.1881,-3.1872,-3.1867,-3.1882,-3.1898,-3.1893,-3.1902,-3.1927,-3.1917,-3.1815,-3.1801,-3.1786,-3.1775,-3.1929,-3.1929,-3.2025,-3.2026,-3.2027]},{"header":{"parameterUnit":"m.s-1","parameterCategory":1,"la1":30.2991,"la2":30.254,"lo1":-89.0895,"lo2":-89.0444,"dy":0.0017,"dx":0.0017,"nx":28,"ny":28,"refTime":"2025-11-28T09:00:00:Z","depth":0,"parameterNumber":3,"parameterNumberName":"V-component_of_WINDS"},"data":[0,0,0,0,0,0,0,0,0,0,0,0,0,0,0,0,0,0,0,0,0,0,0,0,0,0,0,0,0,0,0,0,0,0,0,0,0,0,0,0,0,0,0,0,0,0,0,0,0,0,0,0,0,0,0,0,0,0,-4.945,-4.9451,0,-4.9509,-4.9509,-4.951,-4.9482,-4.9481,-4.9479,-4.9478,-4.9533,-4.9536,-4.9539,0,0,0,0,0,0,0,0,0,0,0,0,0,-4.9312,-4.9315,-4.945,-4.9451,-4.9452,-4.9508,-4.9509,-4.951,-4.9482,-4.9481,-4.9479,-4.9477,-4.9532,-4.9536,-4.9539,0,0,0,0,0,0,0,0,0,0,0,0,0,-4.9371,-4.9316,-4.945,-4.9445,-4.9445,-4.9508,-4.9509,-4.951,-4.9483,-4.948,-4.9478,-4.9476,-4.9531,-4.9535,-4.954,-4.961,0,0,-4.9553,-4.9554,0,0,0,0,0,0,0,0,-4.9368,-4.9376,-4.9445,-4.9445,-4.9446,-4.9486,-4.9481,-4.9544,-4.9483,-4.9468,-4.9478,-4.9475,-4.9519,-4.9524,-4.954,-4.9613,-4.9615,-4.9553,-4.9556,-4.9557,-4.9559,0,0,0,0,0,0,0,-4.9364,-4.9374,-4.9473,-4.9446,-4.9447,-4.9438,-4.9444,-4.9492,-4.9505,-4.9469,-4.9468,-4.9475,-4.9519,-4.9536,-4.9541,-4.9616,-4.9553,-4.9557,-4.9559,-4.9561,-4.975,-4.9752,0,0,0,0,0,0,-4.936,-4.937,-4.9471,-4.9475,-4.9401,-4.9443,-4.9449,-4.9475,-4.9505,-4.9507,-4.9477,-4.9474,-4.9529,-4.9536,-4.9543,-4.9628,-4.9557,-4.9561,-4.9564,-4.9747,-4.975,-4.9753,0,0,0,0,0,0,-4.9358,-4.937,-4.9469,-4.9422,-4.9434,-4.9448,-4.9477,-4.9477,-4.9494,-4.951,-4.9512,-4.9492,-4.9528,-4.9537,-4.9594,-4.9629,-4.9563,-4.9567,-4.9744,-4.9748,-4.9752,-4.9798,0,0,0,0,0,0,-4.9354,-4.9369,-4.9397,-4.9423,-4.9437,-4.9521,-4.9479,-4.948,-4.9502,-4.9499,-4.9525,-4.9527,-4.9527,-4.9588,-4.9598,-4.9634,-4.9571,-4.9741,-4.9746,-4.9751,-4.9794,-4.9803,-4.9811,0,0,0,0,0,-4.9349,-4.9406,-4.9398,-4.9411,-4.9472,-4.9523,-4.953,-4.953,-4.9505,-4.9533,-4.9543,-4.9526,-4.9624,-4.9594,-4.9605,-4.9643,-4.9739,-4.9745,-4.975,-4.979,-4.9801,-4.9811,0,0,0,0,0,0,-4.9382,-4.941,-4.9401,-4.9469,-4.9494,-4.9518,-4.9553,-4.9542,-4.9573,-4.9568,-4.9565,-4.9571,-4.9631,-4.9642,-4.9609,-4.9713,-4.9677,-4.9685,-4.9703,-4.9715,-4.9723,-4.9719,-4.9574,0,0,0,0,0,-4.9398,-4.9438,-4.9459,-4.9517,-4.953,-4.9539,-4.9561,-4.9559,-4.9584,-4.9594,-4.9608,-4.9632,-4.9668,-4.9692,-4.9726,-4.9795,-4.98,-4.9826,-4.9835,-4.9842,-4.9849,-4.9887,-4.9899,-4.9771,-4.9771,-4.9771,0,0,-4.9429,-4.945,-4.9475,-4.9524,-4.9543,-4.9584,-4.9548,-4.9592,-4.9622,-4.96,-4.9656,-4.9667,-4.9693,-4.9757,-4.9786,-4.9769,-4.9886,-4.9849,-4.9855,-4.9858,-4.9894,-4.9906,-4.9917,-4.9775,-4.9774,-4.9774,0,0,-4.9509,-4.9528,-4.9579,-4.9599,-4.9629,-4.9635,-4.9647,-4.9673,-4.968,-4.9736,-4.9721,-4.9755,-4.9817,-4.9837,-4.9855,-4.9942,-4.9928,-4.9953,-4.9999,-5.0036,-5.0046,-5.0055,-5.0086,-5.0098,-4.996,-4.996,-4.996,0,-4.9544,-4.9606,-4.9606,-4.9652,-4.9674,-4.9657,-4.9708,-4.9727,-4.9766,-4.9781,-4.9761,-4.9839,-4.9856,-4.9924,-4.9946,-4.9961,-4.9974,-4.995,-5.0045,-5.0054,-5.0062,-5.0092,-5.0104,-4.9963,-4.9963,-4.9962,-4.9962,0,-4.9649,-4.9692,-4.9729,-4.9769,-4.9795,-4.9843,-4.9849,-4.9875,-4.9871,-4.9878,-4.9935,-4.9955,-4.9993,-5.0008,-5.0003,-5.0076,-5.0065,-5.0045,-5.0009,-5.0077,-5.0105,-5.0117,-4.9967,-4.9966,-4.9965,-4.9964,0,0,-4.9751,-4.9791,-4.9804,-4.9822,-4.9854,-4.9887,-4.9934,-4.9972,-4.9995,-5.0022,-5.0061,-5.0114,-5.0097,-5.0117,-5.0114,-5.0147,-5.0215,-5.0123,-5.0123,-5.014,-5.0297,-5.0312,-5.0325,-5.0206,-5.0208,-5.021,-5.0295,0,-4.9833,-4.9917,-4.9919,-4.9996,-5.0035,-5.002,-5.0061,-5.0084,-5.0093,-5.0127,-5.0135,-5.0173,-5.0146,-5.0159,-5.019,-5.02,-5.0247,-5.0194,-5.0242,-5.0243,-5.0236,-5.034,-5.0356,-5.0436,-5.0306,-5.0308,-5.0309,0,-4.994,-4.9973,-5.0054,-5.0081,-5.0098,-5.0135,-5.017,-5.0203,-5.0229,-5.0233,-5.0256,-5.0249,-5.0296,-5.0259,-5.0323,-5.0287,-5.0307,-5.0314,-5.0317,-5.0322,-5.0281,-5.0348,-5.0461,-5.0473,-5.0326,-5.0325,-5.0324,0,-5.0007,-5.0071,-5.0129,-5.0144,-5.0177,-5.0203,-5.0218,-5.0242,-5.0265,-5.0295,-5.031,-5.0345,-5.0364,-5.0391,-5.0393,-5.0365,-5.0458,-5.0421,-5.0462,-5.0462,-5.0483,-5.0481,-5.0601,-5.0494,-5.0494,-5.0494,-5.0494,0,-5.0099,-5.015,-5.0159,-5.0195,-5.0251,-5.0251,-5.0306,-5.0318,-5.0339,-5.0376,-5.0364,-5.0398,-5.0398,-5.0433,-5.0434,-5.0488,-5.0496,-5.05,-5.05,-5.0502,-5.0501,-5.0514,-5.0509,-5.0497,-5.0496,-5.0496,-5.0495,0,-5.0184,-5.0192,-5.0254,-5.028,-5.0288,-5.0328,-5.035,-5.0383,-5.039,-5.0437,-5.0447,-5.0459,-5.0499,-5.0503,-5.0549,-5.055,-5.0615,-5.0609,-5.0607,-5.0606,-5.0648,-5.0644,-5.078,-5.0798,-5.0679,-5.068,-5.0681,0,-5.0242,-5.0281,-5.0312,-5.0337,-5.0353,-5.0392,-5.0417,-5.0418,-5.0443,-5.0476,-5.0505,-5.0544,-5.0576,-5.0641,-5.0652,-5.0688,-5.0682,-5.0728,-5.0687,-5.0688,-5.0684,-5.0682,-5.0686,-5.0736,-5.0737,-5.0738,-5.0739,0,-5.0346,-5.0348,-5.0384,-5.0422,-5.0452,-5.0481,-5.0508,-5.0529,-5.0533,-5.0562,-5.0604,-5.0629,-5.0677,-5.0716,-5.0751,-5.0764,-5.0753,-5.0751,-5.0763,-5.0765,-5.0763,-5.0766,-5.0629,-5.0748,-5.0747,-5.0747,-5.0746,-5.0746,-5.042,-5.0454,-5.0481,-5.0522,-5.0543,-5.0569,-5.0602,-5.0614,-5.0649,-5.069,-5.0688,-5.0734,-5.0759,-5.0805,-5.0821,-5.0856,-5.0841,-5.0857,-5.0862,-5.0866,-5.0871,-5.0757,-5.0862,-5.0862,-5.0862,-5.0862,-5.0861,0,-5.0523,-5.054,-5.0577,-5.0617,-5.0649,-5.0636,-5.0666,-5.0693,-5.0735,-5.0759,-5.0791,-5.0839,-5.0877,-5.0892,-5.0929,-5.0954,-5.095,-5.0964,-5.0962,-5.0966,-5.0882,-5.0869,-5.0967,-5.0967,-5.0967,-5.0967,-5.0967,-5.0967,-5.058,-5.0638,-5.0644,-5.0711,-5.0727,-5.0774,-5.0792,-5.0816,-5.0836,-5.0891,-5.0923,-5.0933,-5.0953,-5.0992,-5.1026,-5.1029,-5.1043,-5.106,-5.1061,-5.0982,-5.0972,-5.0961,-5.0949,-5.1063,-5.1063,-5.1142,-5.1143,-5.1143]}]]